{"data":{"norad_id":59607,"intl_designator":"2024-080G","name":"STARLINK-31755","alt_names":[],"object_type":"PAYLOAD","status":"ACTIVE","operator":null,"country":"US","launch_date":"2024-04-28","launch_site_code":"AFETR","launch_vehicle":null,"mission":null,"orbit_class":"UNKNOWN","rcs_meters":null,"size_class":null,"mass_kg":null,"dimensions":null,"purposes":["comms"],"wikipedia_slug":null,"has_3d_model":false,"image_url":null,"decayed_at":null,"tle_current":{"epoch":"2026-05-24T20:09:27.345312Z","epoch_age_seconds":88847,"freshness":"FRESH","line1":"1 59607U 24080G   26144.83989983 -.00000230  00000+0  11698-5 0  9990","line2":"2 59607  43.0039 331.7620 0001248 275.2981  84.7728 15.27574294116133","mean_motion":15.27574294,"eccentricity":0.0001248,"inclination_deg":43.0039,"raan_deg":331.762,"arg_perigee_deg":275.2981,"mean_anomaly_deg":84.7728,"bstar":1.1698e-6,"rev_number":11613,"period_min":94.267100831431,"perigee_km":482.20990375246,"apogee_km":483.92246006666,"semimajor_km":6861.2031819096,"source":"CELESTRAK","updated_at":"2026-05-25T13:38:19.008726Z"}}}